Regional Weather Roundup
Issued by NWS

Home | Current Version | Previous Version | Text Only | Print | Product List | Glossary Off
Versions: 1 2 3 4 5 6 7 8 9 10 11 12 13 14 15 16 17 18 19 20 21 22 23 24 25 26 27 28 29 30 31 32 33 34 35 36 37 38 39 40 41 42 43 44 45 46 47 48 49 50

000
ASUS43 KIND 221209
RWRIN

WEATHER ROUNDUP FOR INDIANA
NATIONAL WEATHER SERVICE INDIANAPOLIS IN
700 AM EST MON DEC 22 2014

NOTE: "FAIR" INDICATES FEW OR NO CLOUDS BELOW 12,000 FEET WITH NO
SIGNIFICANT WEATHER AND/OR OBSTRUCTIONS TO VISIBILITY.

* - STATION DOES NOT REPORT WEATHER SUCH AS PRECIPITATION OR FOG.

+ - STATION NOT QUALITY CONTROLLED BY THE NATIONAL WEATHER SERVICE.
    USE DATA WITH CAUTION...ESPECIALLY DEWPOINT AND RELATIVE
    HUMIDITY OBSERVATIONS.

INZ001>003-010>013-019-020-221300-
NORTHWEST INDIANA

CITY           SKY/WX    TMP DP  RH WIND       PRES   REMARKS
GARY /AIRPORT/ CLOUDY    32  25  74 SE12      29.98S WCI  23
KNOX *+        CLOUDY    30  24  77 SE9       29.98S WCI  22
LA PORTE +     CLOUDY    31  29  93 SE5       29.99S FOG     WCI  26
6HR MIN TEMP:  29; 6HR MAX TEMP:  31;

MICHIGAN CITY+ CLOUDY    30  23  74 SE6       29.99S WCI  24
MONTICELLO +   CLOUDY    31  28  88 E7        29.96F WCI  24
RENSSELAER +   CLOUDY    32  32 100 E8        29.96F FOG     WCI  25
VALPARAISO     CLOUDY    29  26  89 E7        29.98S WCI  22
6HR MIN TEMP:  27; 6HR MAX TEMP:  30;


$$

LMZ046-743>745-221300-
SOUTHERN LAKE MICHIGAN

STATION/POSITION TIME  TEMP WIND        PRES
                       AIR  DIR/SP/G
                 (UTC) (F)  (DEG/KT/KT) (MB)

$$

INZ004-005-014>016-021>024-221300-
NORTH CENTRAL INDIANA

CITY           SKY/WX    TMP DP  RH WIND       PRES   REMARKS
ELKHART        PTCLDY    27  21  80 E8        30.02  HAZE    WCI  18
GOSHEN         PTCLDY    27  24  89 SE7       30.02R FOG     WCI  19
6HR MIN TEMP:  27; 6HR MAX TEMP:  29;

LOGANSPORT +   CLOUDY    30  27  86 E9        29.98F WCI  22
PERU/GRISSOM   CLOUDY    29  29 100 E10       29.98F WCI  20
6HR MIN TEMP:  27; 6HR MAX TEMP:  29;

ROCHESTER +    PTCLDY    32  30  93 E7        30.00F WCI  26
SOUTH BEND     MOCLDY    29  25  85 E9        30.01S WCI  20
6HR MIN TEMP:  27; 6HR MAX TEMP:  31;

WARSAW +       FAIR      28  25  86 E6        30.01S FOG     WCI  22

$$

INZ006>009-017-018-025>027-221300-
NORTHEAST INDIANA

CITY           SKY/WX    TMP DP  RH WIND       PRES   REMARKS
ANGOLA *+      CLEAR     25  21  86 SE7       30.03S WCI  17
AUBURN +       MOCLDY    27  23  86 E6        30.04S FOG     WCI  20
FORT WAYNE     MOCLDY    25  22  88 E7        30.04R FOG     WCI  17
6HR MIN TEMP:  22; 6HR MAX TEMP:  28;

HUNTINGTON +   PTCLDY    26  24  93 E5        30.01F WCI  20
6HR MIN TEMP:  25; 6HR MAX TEMP:  28;


$$

INZ028-029-035-036-043>045-051>053-221300-
WEST CENTRAL INDIANA

CITY           SKY/WX    TMP DP  RH WIND       PRES   REMARKS
CRAWFORDSVL +  CLOUDY    30  25  80 E10       29.94  WCI  21
GREENCASTLE +  CLOUDY    32  27  80 E7        29.95F WCI  26
LAFAYETTE      CLOUDY    31  27  85 E7        29.95F WCI  24
6HR MIN TEMP:  26; 6HR MAX TEMP:  31;

TERRE HAUTE    CLOUDY    34  28  79 SE6       29.94F WCI  29
6HR MIN TEMP:  28; 6HR MAX TEMP:  34;


$$

INZ030>032-037>040-046>048-054>057-064-065-221300-
CENTRAL INDIANA

CITY           SKY/WX    TMP DP  RH WIND       PRES   REMARKS
CP ATTERBURY + CLOUDY    32  30  93 MISG      29.99S
COLUMBUS       CLOUDY    32  30  93 CALM      29.99
FRANKFORT +    MOCLDY    31  29  91 E9        29.97F WCI  23
INDIANAPOLIS   CLOUDY    31  27  85 E7        29.96S WCI  24
6HR MIN TEMP:  27; 6HR MAX TEMP:  31;

-EAGLE CREEK   CLOUDY    31  27  85 E5        29.97F WCI  26
6HR MIN TEMP:  26; 6HR MAX TEMP:  31;

KOKOMO *+      CLOUDY    28  25  86 SE8       29.99S WCI  20
MARION +       CLOUDY    29  25  86 SE8       30.00F WCI  21
MT COMFORT *+  CLOUDY    32  25  74 SE6       29.98S WCI  26
SHELBYVILLE    CLOUDY    34  29  82 E8        29.98S WCI  27
6HR MIN TEMP:  29; 6HR MAX TEMP:  34;

ZIONSVILLE +   CLOUDY    31  26  83 SE6       29.97F WCI  25
6HR MIN TEMP:  27; 6HR MAX TEMP:  31;


$$

INZ033-034-041-042-049-050-058-059-221300-
EAST CENTRAL INDIANA

CITY           SKY/WX    TMP DP  RH WIND       PRES   REMARKS
MUNCIE         CLOUDY    32  27  81 SE3       30.00S
6HR MIN TEMP:  25; 6HR MAX TEMP:  32;


$$

INZ060-061-067>069-081>083-085>088-221300-
SOUTHWEST INDIANA

CITY           SKY/WX    TMP DP  RH WIND       PRES   REMARKS
EVANSVILLE     CLOUDY    39  32  76 E3        29.92F
6HR MIN TEMP:  33; 6HR MAX TEMP:  39;

HUNTINGBURG *+ CLOUDY    39  30  70 SE8       29.94F
6HR MIN TEMP:  32; 6HR MAX TEMP:  39;

WASHINGTON +   CLOUDY    35  30  83 SE6       29.94S WCI  30
6HR MIN TEMP:  30; 6HR MAX TEMP:  35;


$$

INZ062-063-066-070>080-084-089>092-221300-
SOUTH CENTRAL AND SOUTHEAST INDIANA

CITY           SKY/WX    TMP DP  RH WIND       PRES   REMARKS
BLOOMINGTON    CLOUDY    33  28  81 SE8       29.95F WCI  26
6HR MIN TEMP:  29; 6HR MAX TEMP:  33;

SEYMOUR +      CLOUDY    34  32  93 SE6       29.98  WCI  29

$$




USA.gov is the U.S. government's official web portal to all federal, state and local government web resources and services.